GFSMW_prec_precacc24_177.txt.gz
Total_Precipitation_Accumulation
0.00 0.00 0.00 0.00 0.00 0.00 0.00 0.00 0.00 0.00 0.00 0.00 0.00 0.00 0.00 0.00 0.00 0.00 0.00 0.00 0.01 0.02 0.07 0.08 0.08 0.16 0.21 0.23 0.23 0.42 0.53 0.26 0.43 0.66 0.47 0.35 0.25 0.18 0.07 0.07 0.08 0.12 0.14
0.00 0.00 0.00 0.00 0.00 0.00 0.00 0.00 0.00 0.00 0.00 0.00 0.00 0.00 0.00 0.00 0.00 0.00 0.00 0.00 0.01 0.06 0.11 0.16 0.16 0.15 0.11 0.19 0.28 0.35 0.63 0.45 0.61 0.88 0.97 0.76 0.63 0.41 0.33 0.26 0.21 0.18 0.21
0.00 0.00 0.00 0.00 0.00 0.00 0.00 0.00 0.00 0.00 0.00 0.00 0.00 0.00 0.00 0.00 0.00 0.00 0.00 0.00 0.00 0.01 0.04 0.10 0.17 0.19 0.27 0.15 0.27 0.42 0.51 0.37 0.53 0.74 1.03 1.09 0.86 0.64 0.61 0.49 0.37 0.34 0.28
0.00 0.00 0.00 0.00 0.00 0.00 0.00 0.00 0.00 0.00 0.00 0.00 0.00 0.00 0.00 0.00 0.00 0.00 0.00 0.00 0.00 0.00 0.01 0.04 0.13 0.18 0.23 0.27 0.30 0.46 0.52 0.59 0.47 0.53 0.60 0.64 0.73 0.77 0.61 0.52 0.50 0.50 0.43
0.00 0.00 0.00 0.00 0.00 0.00 0.00 0.00 0.00 0.00 0.00 0.00 0.00 0.00 0.00 0.00 0.00 0.00 0.00 0.00 0.00 0.00 0.00 0.00 0.03 0.09 0.17 0.21 0.27 0.29 0.40 0.61 0.92 1.03 1.01 1.03 1.03 1.11 1.15 0.90 0.59 0.59 0.62
0.00 0.00 0.00 0.00 0.00 0.00 0.00 0.00 0.00 0.00 0.00 0.00 0.00 0.00 0.00 0.00 0.00 0.00 0.00 0.00 0.00 0.00 0.00 0.00 0.00 0.01 0.05 0.09 0.13 0.24 0.31 0.34 0.48 0.85 1.36 1.59 1.62 1.61 1.62 1.50 1.10 0.77 0.51
0.00 0.00 0.00 0.00 0.00 0.00 0.00 0.00 0.00 0.00 0.00 0.00 0.00 0.00 0.00 0.00 0.00 0.00 0.00 0.00 0.00 0.00 0.00 0.00 0.00 0.00 0.01 0.04 0.12 0.17 0.28 0.24 0.23 0.30 0.46 0.63 0.87 1.10 1.57 2.01 1.90 1.67 1.24
0.00 0.00 0.00 0.00 0.00 0.00 0.00 0.00 0.00 0.00 0.00 0.00 0.00 0.00 0.00 0.00 0.00 0.00 0.00 0.00 0.01 0.01 0.01 0.01 0.01 0.01 0.02 0.04 0.11 0.13 0.11 0.16 0.23 0.21 0.25 0.37 0.41 0.49 0.59 0.96 1.37 1.48 1.02
0.00 0.00 0.00 0.00 0.00 0.00 0.00 0.00 0.00 0.00 0.00 0.00 0.00 0.00 0.00 0.00 0.00 0.00 0.00 0.00 0.01 0.01 0.01 0.01 0.01 0.01 0.02 0.06 0.09 0.08 0.04 0.08 0.14 0.22 0.20 0.18 0.21 0.28 0.38 0.41 0.42 0.59 0.66
0.00 0.00 0.00 0.00 0.00 0.00 0.00 0.00 0.00 0.00 0.00 0.00 0.00 0.00 0.00 0.00 0.00 0.00 0.00 0.00 0.01 0.01 0.02 0.04 0.05 0.06 0.06 0.03 0.04 0.05 0.07 0.07 0.05 0.15 0.17 0.15 0.14 0.15 0.15 0.21 0.25 0.24 0.24
0.00 0.00 0.00 0.00 0.00 0.00 0.00 0.00 0.00 0.00 0.00 0.00 0.00 0.00 0.00 0.00 0.00 0.00 0.01 0.01 0.02 0.03 0.04 0.07 0.09 0.09 0.05 0.04 0.05 0.06 0.05 0.05 0.06 0.11 0.15 0.14 0.13 0.14 0.11 0.13 0.18 0.16 0.16
0.00 0.00 0.00 0.00 0.00 0.00 0.00 0.00 0.00 0.00 0.00 0.00 0.00 0.00 0.00 0.00 0.00 0.00 0.01 0.03 0.05 0.08 0.12 0.15 0.21 0.18 0.12 0.11 0.12 0.09 0.06 0.09 0.10 0.10 0.11 0.12 0.15 0.13 0.13 0.16 0.19 0.18 0.14
0.00 0.00 0.00 0.00 0.00 0.00 0.00 0.00 0.00 0.00 0.00 0.00 0.00 0.00 0.00 0.00 0.00 0.01 0.03 0.06 0.12 0.15 0.14 0.15 0.21 0.24 0.23 0.31 0.24 0.18 0.17 0.19 0.18 0.16 0.15 0.14 0.18 0.20 0.16 0.24 0.27 0.27 0.31
0.00 0.00 0.00 0.00 0.00 0.00 0.00 0.00 0.00 0.00 0.00 0.00 0.00 0.00 0.00 0.00 0.00 0.01 0.04 0.08 0.11 0.14 0.16 0.19 0.27 0.20 0.19 0.38 0.43 0.40 0.37 0.46 0.40 0.34 0.31 0.25 0.28 0.32 0.30 0.25 0.26 0.34 0.27
0.00 0.00 0.00 0.00 0.00 0.00 0.00 0.00 0.00 0.00 0.00 0.00 0.00 0.00 0.00 0.00 0.01 0.03 0.04 0.08 0.12 0.16 0.20 0.19 0.21 0.28 0.31 0.38 0.50 0.53 0.55 0.55 0.60 0.54 0.48 0.50 0.54 0.53 0.51 0.45 0.35 0.31 0.49
0.00 0.00 0.00 0.00 0.00 0.00 0.00 0.00 0.00 0.00 0.00 0.00 0.00 0.00 0.00 0.00 0.00 0.03 0.04 0.06 0.10 0.14 0.17 0.17 0.16 0.16 0.27 0.38 0.43 0.58 0.62 0.58 0.62 0.57 0.56 0.53 0.55 0.50 0.54 0.49 0.52 0.52 0.51
0.00 0.00 0.00 0.00 0.00 0.00 0.00 0.00 0.00 0.00 0.00 0.00 0.00 0.00 0.00 0.00 0.00 0.00 0.00 0.02 0.05 0.07 0.10 0.11 0.13 0.10 0.14 0.21 0.21 0.28 0.47 0.61 0.58 0.50 0.44 0.43 0.52 0.51 0.45 0.53 0.50 0.57 0.58
0.00 0.00 0.00 0.00 0.00 0.00 0.00 0.00 0.00 0.00 0.00 0.00 0.00 0.00 0.00 0.00 0.00 0.00 0.00 0.00 0.00 0.01 0.01 0.02 0.06 0.08 0.06 0.07 0.07 0.06 0.07 0.22 0.45 0.53 0.45 0.41 0.34 0.43 0.50 0.46 0.53 0.53 0.62
0.00 0.00 0.00 0.00 0.00 0.00 0.00 0.00 0.00 0.00 0.00 0.00 0.00 0.00 0.00 0.00 0.00 0.00 0.00 0.00 0.01 0.00 0.00 0.00 0.00 0.00 0.01 0.04 0.04 0.03 0.03 0.04 0.07 0.16 0.31 0.37 0.31 0.29 0.35 0.42 0.47 0.53 0.56
0.00 0.00 0.00 0.00 0.00 0.00 0.00 0.00 0.00 0.00 0.00 0.00 0.00 0.00 0.00 0.00 0.00 0.00 0.00 0.00 0.00 0.00 0.00 0.01 0.00 0.00 0.00 0.01 0.03 0.03 0.02 0.02 0.02 0.02 0.05 0.14 0.25 0.25 0.27 0.26 0.31 0.43 0.47
0.00 0.00 0.00 0.00 0.00 0.00 0.00 0.00 0.00 0.00 0.00 0.00 0.00 0.00 0.00 0.00 0.00 0.00 0.00 0.00 0.00 0.00 0.00 0.01 0.00 0.00 0.00 0.01 0.03 0.03 0.03 0.06 0.03 0.02 0.03 0.04 0.08 0.17 0.18 0.16 0.16 0.24 0.28
0.00 0.00 0.00 0.00 0.00 0.00 0.00 0.00 0.00 0.00 0.00 0.00 0.00 0.00 0.00 0.00 0.00 0.00 0.00 0.00 0.00 0.00 0.01 0.01 0.00 0.00 0.00 0.01 0.03 0.02 0.02 0.03 0.03 0.03 0.04 0.02 0.03 0.04 0.06 0.12 0.15 0.13 0.10
0.00 0.00 0.00 0.00 0.00 0.00 0.00 0.00 0.00 0.00 0.00 0.00 0.00 0.00 0.00 0.00 0.00 0.00 0.01 0.01 0.01 0.02 0.02 0.02 0.01 0.01 0.00 0.01 0.02 0.02 0.01 0.02 0.01 0.02 0.01 0.02 0.02 0.01 0.01 0.02 0.04 0.08 0.09
0.00 0.00 0.00 0.00 0.00 0.00 0.00 0.00 0.00 0.00 0.00 0.00 0.00 0.00 0.00 0.00 0.00 0.00 0.00 0.02 0.04 0.04 0.04 0.04 0.03 0.02 0.01 0.03 0.05 0.04 0.02 0.01 0.01 0.01 0.00 0.01 0.01 0.00 0.01 0.01 0.01 0.03 0.06
0.00 0.00 0.00 0.00 0.00 0.00 0.00 0.00 0.00 0.00 0.00 0.00 0.00 0.00 0.01 0.01 0.01 0.01 0.01 0.02 0.03 0.06 0.08 0.07 0.04 0.08 0.10 0.09 0.07 0.06 0.04 0.03 0.02 0.00 0.01 0.01 0.01 0.01 0.00 0.01 0.01 0.01 0.02
0.00 0.00 0.00 0.00 0.00 0.00 0.00 0.00 0.00 0.00 0.00 0.00 0.00 0.00 0.01 0.01 0.01 0.01 0.01 0.01 0.00 0.01 0.01 0.02 0.02 0.03 0.04 0.04 0.03 0.03 0.02 0.02 0.01 0.01 0.01 0.02 0.03 0.03 0.03 0.03 0.02 0.01 0.02

GFSMW_prec_precacc24_183.txt.gz
Total_Precipitation_Accumulation
0.00 0.00 0.00 0.00 0.00 0.00 0.00 0.00 0.00 0.00 0.00 0.00 0.00 0.00 0.00 0.00 0.00 0.00 0.00 0.00 0.00 0.00 0.00 0.00 0.00 0.01 0.02 0.04 0.07 0.11 0.14 0.12 0.20 0.31 0.20 0.14 0.14 0.11 0.07 0.07 0.08 0.12 0.13
0.00 0.00 0.00 0.00 0.00 0.00 0.00 0.00 0.00 0.00 0.00 0.00 0.00 0.00 0.00 0.00 0.00 0.00 0.00 0.00 0.00 0.00 0.00 0.00 0.00 0.00 0.00 0.01 0.02 0.03 0.07 0.16 0.27 0.40 0.46 0.43 0.32 0.24 0.19 0.15 0.17 0.17 0.18
0.00 0.00 0.00 0.00 0.00 0.00 0.00 0.00 0.00 0.00 0.00 0.00 0.00 0.00 0.00 0.00 0.00 0.00 0.00 0.00 0.00 0.00 0.00 0.00 0.00 0.00 0.00 0.00 0.01 0.01 0.02 0.05 0.14 0.28 0.58 0.79 0.70 0.44 0.31 0.23 0.15 0.14 0.16
0.00 0.00 0.00 0.00 0.00 0.00 0.00 0.00 0.00 0.00 0.00 0.00 0.00 0.00 0.00 0.00 0.00 0.00 0.00 0.00 0.00 0.00 0.00 0.00 0.00 0.00 0.00 0.01 0.00 0.01 0.02 0.03 0.04 0.09 0.15 0.22 0.33 0.42 0.38 0.31 0.28 0.24 0.23
0.00 0.00 0.00 0.00 0.00 0.00 0.00 0.00 0.00 0.00 0.00 0.00 0.00 0.00 0.00 0.00 0.00 0.00 0.00 0.00 0.00 0.00 0.00 0.00 0.00 0.00 0.00 0.01 0.01 0.01 0.02 0.04 0.06 0.08 0.23 0.29 0.31 0.36 0.40 0.33 0.23 0.28 0.41
0.00 0.00 0.00 0.00 0.00 0.00 0.00 0.00 0.00 0.00 0.00 0.00 0.00 0.00 0.00 0.00 0.00 0.00 0.00 0.00 0.00 0.00 0.00 0.00 0.00 0.00 0.01 0.01 0.01 0.02 0.04 0.05 0.04 0.04 0.08 0.26 0.50 0.78 1.00 1.04 0.77 0.50 0.34
0.00 0.00 0.00 0.00 0.00 0.00 0.00 0.00 0.00 0.00 0.00 0.00 0.00 0.00 0.00 0.00 0.00 0.00 0.00 0.00 0.00 0.00 0.00 0.00 0.00 0.00 0.00 0.01 0.02 0.06 0.05 0.02 0.02 0.01 0.04 0.09 0.18 0.36 0.64 0.86 0.91 0.84 0.59
0.00 0.00 0.00 0.00 0.00 0.00 0.00 0.00 0.00 0.00 0.00 0.00 0.00 0.00 0.00 0.00 0.00 0.00 0.00 0.00 0.00 0.00 0.00 0.01 0.01 0.01 0.01 0.01 0.04 0.02 0.01 0.01 0.01 0.01 0.02 0.05 0.06 0.13 0.22 0.45 0.77 0.87 0.65
0.00 0.00 0.00 0.00 0.00 0.00 0.00 0.00 0.00 0.00 0.00 0.00 0.00 0.00 0.00 0.00 0.00 0.00 0.00 0.00 0.00 0.00 0.00 0.00 0.01 0.01 0.01 0.04 0.01 0.00 0.00 0.00 0.01 0.02 0.02 0.03 0.06 0.07 0.12 0.18 0.26 0.50 0.65
0.00 0.00 0.00 0.00 0.00 0.00 0.00 0.00 0.00 0.00 0.00 0.00 0.00 0.00 0.00 0.00 0.00 0.00 0.00 0.00 0.00 0.00 0.00 0.01 0.01 0.01 0.03 0.02 0.00 0.00 0.00 0.00 0.01 0.02 0.03 0.04 0.06 0.08 0.09 0.15 0.16 0.19 0.24
0.00 0.00 0.00 0.00 0.00 0.00 0.00 0.00 0.00 0.00 0.00 0.00 0.00 0.00 0.00 0.00 0.00 0.00 0.00 0.00 0.00 0.01 0.01 0.01 0.01 0.02 0.02 0.00 0.01 0.01 0.00 0.00 0.00 0.01 0.04 0.04 0.06 0.09 0.09 0.10 0.14 0.13 0.15
0.00 0.00 0.00 0.00 0.00 0.00 0.00 0.00 0.00 0.00 0.00 0.00 0.00 0.00 0.00 0.00 0.00 0.00 0.00 0.00 0.00 0.00 0.01 0.01 0.02 0.02 0.01 0.01 0.03 0.03 0.01 0.03 0.03 0.02 0.04 0.05 0.08 0.10 0.11 0.15 0.18 0.18 0.11
0.00 0.00 0.00 0.00 0.00 0.00 0.00 0.00 0.00 0.00 0.00 0.00 0.00 0.00 0.00 0.00 0.00 0.00 0.00 0.00 0.00 0.00 0.01 0.01 0.02 0.02 0.02 0.03 0.06 0.05 0.05 0.07 0.09 0.09 0.08 0.10 0.14 0.16 0.13 0.18 0.20 0.19 0.20
0.00 0.00 0.00 0.00 0.00 0.00 0.00 0.00 0.00 0.00 0.00 0.00 0.00 0.00 0.00 0.00 0.00 0.00 0.00 0.00 0.00 0.00 0.01 0.01 0.02 0.03 0.04 0.05 0.06 0.06 0.09 0.16 0.20 0.24 0.24 0.21 0.24 0.28 0.28 0.24 0.25 0.32 0.23
0.00 0.00 0.00 0.00 0.00 0.00 0.00 0.00 0.00 0.00 0.00 0.00 0.00 0.00 0.00 0.00 0.00 0.00 0.00 0.00 0.00 0.00 0.00 0.01 0.01 0.03 0.04 0.04 0.04 0.06 0.11 0.16 0.25 0.33 0.36 0.42 0.45 0.44 0.44 0.43 0.34 0.30 0.48
0.00 0.00 0.00 0.00 0.00 0.00 0.00 0.00 0.00 0.00 0.00 0.00 0.00 0.00 0.00 0.00 0.00 0.00 0.00 0.00 0.00 0.00 0.00 0.00 0.00 0.01 0.01 0.02 0.04 0.08 0.08 0.11 0.17 0.26 0.38 0.42 0.48 0.45 0.49 0.45 0.48 0.51 0.53
0.00 0.00 0.00 0.00 0.00 0.00 0.00 0.00 0.00 0.00 0.00 0.00 0.00 0.00 0.00 0.00 0.00 0.00 0.00 0.00 0.00 0.00 0.00 0.00 0.01 0.00 0.00 0.01 0.03 0.04 0.06 0.09 0.14 0.20 0.21 0.30 0.47 0.47 0.45 0.51 0.50 0.57 0.58
0.00 0.00 0.00 0.00 0.00 0.00 0.00 0.00 0.00 0.00 0.01 0.01 0.01 0.02 0.02 0.01 0.00 0.00 0.00 0.00 0.00 0.00 0.00 0.00 0.00 0.00 0.00 0.01 0.03 0.02 0.02 0.05 0.08 0.15 0.24 0.26 0.27 0.41 0.49 0.48 0.54 0.54 0.62
0.00 0.00 0.00 0.00 0.00 0.00 0.00 0.01 0.03 0.04 0.07 0.10 0.13 0.11 0.03 0.00 0.00 0.00 0.00 0.00 0.00 0.00 0.00 0.00 0.00 0.00 0.00 0.00 0.02 0.02 0.01 0.01 0.01 0.03 0.14 0.26 0.27 0.27 0.35 0.43 0.47 0.53 0.56
0.00 0.00 0.01 0.00 0.00 0.01 0.03 0.07 0.11 0.15 0.22 0.26 0.22 0.10 0.01 0.00 0.00 0.00 0.00 0.00 0.00 0.00 0.00 0.01 0.00 0.00 0.00 0.00 0.02 0.02 0.01 0.01 0.01 0.00 0.02 0.07 0.20 0.22 0.26 0.25 0.31 0.44 0.48
0.00 0.00 0.02 0.02 0.01 0.02 0.05 0.09 0.13 0.20 0.24 0.19 0.09 0.02 0.00 0.00 0.00 0.00 0.00 0.00 0.00 0.00 0.00 0.01 0.00 0.00 0.00 0.01 0.02 0.01 0.01 0.03 0.02 0.01 0.02 0.03 0.06 0.16 0.17 0.16 0.16 0.26 0.29
0.00 0.00 0.00 0.01 0.01 0.00 0.02 0.07 0.16 0.20 0.17 0.09 0.03 0.01 0.00 0.00 0.00 0.00 0.00 0.00 0.00 0.00 0.01 0.01 0.00 0.00 0.00 0.01 0.02 0.01 0.02 0.02 0.02 0.02 0.03 0.02 0.03 0.04 0.06 0.11 0.15 0.13 0.10
0.00 0.00 0.00 0.01 0.01 0.00 0.00 0.01 0.04 0.08 0.07 0.02 0.00 0.00 0.00 0.00 0.00 0.00 0.00 0.00 0.01 0.01 0.02 0.01 0.01 0.01 0.00 0.01 0.02 0.01 0.01 0.02 0.01 0.01 0.01 0.01 0.02 0.01 0.01 0.02 0.04 0.08 0.09
0.00 0.00 0.00 0.01 0.01 0.02 0.04 0.07 0.11 0.09 0.02 0.00 0.00 0.00 0.00 0.00 0.00 0.00 0.00 0.01 0.03 0.03 0.03 0.02 0.02 0.02 0.01 0.03 0.04 0.04 0.02 0.01 0.01 0.01 0.00 0.01 0.01 0.00 0.01 0.01 0.01 0.03 0.06
0.00 0.00 0.00 0.00 0.02 0.04 0.06 0.06 0.05 0.01 0.00 0.00 0.00 0.00 0.01 0.01 0.01 0.01 0.01 0.02 0.03 0.04 0.04 0.04 0.04 0.07 0.07 0.07 0.06 0.06 0.05 0.02 0.02 0.00 0.01 0.01 0.01 0.01 0.00 0.01 0.01 0.01 0.02
0.00 0.00 0.00 0.00 0.01 0.01 0.00 0.00 0.00 0.00 0.00 0.00 0.00 0.00 0.00 0.01 0.01 0.01 0.01 0.01 0.00 0.00 0.01 0.01 0.02 0.03 0.03 0.03 0.03 0.04 0.02 0.02 0.01 0.01 0.01 0.02 0.02 0.02 0.02 0.02 0.02 0.01 0.02

GFSMW_prec_precacc24_186.txt.gz
Total_Precipitation_Accumulation
0.00 0.00 0.00 0.00 0.00 0.00 0.00 0.00 0.00 0.00 0.00 0.00 0.00 0.00 0.00 0.00 0.00 0.00 0.00 0.00 0.00 0.00 0.00 0.00 0.00 0.00 0.00 0.00 0.00 0.00 0.00 0.02 0.07 0.14 0.13 0.10 0.06 0.06 0.06 0.06 0.08 0.12 0.13
0.00 0.00 0.00 0.00 0.00 0.00 0.00 0.00 0.00 0.00 0.00 0.00 0.00 0.00 0.00 0.00 0.00 0.00 0.00 0.00 0.00 0.00 0.00 0.00 0.00 0.00 0.00 0.00 0.00 0.00 0.00 0.00 0.05 0.22 0.35 0.36 0.28 0.20 0.16 0.14 0.17 0.14 0.15
0.00 0.00 0.00 0.00 0.00 0.00 0.00 0.00 0.00 0.00 0.00 0.00 0.00 0.00 0.00 0.00 0.00 0.00 0.00 0.00 0.00 0.00 0.00 0.00 0.00 0.00 0.00 0.00 0.00 0.00 0.00 0.01 0.00 0.01 0.13 0.24 0.32 0.36 0.27 0.19 0.12 0.08 0.11
0.00 0.00 0.00 0.00 0.00 0.00 0.00 0.00 0.00 0.00 0.00 0.00 0.00 0.00 0.00 0.00 0.00 0.00 0.00 0.00 0.00 0.00 0.00 0.00 0.00 0.00 0.00 0.00 0.00 0.00 0.01 0.02 0.03 0.01 0.01 0.06 0.16 0.26 0.32 0.26 0.23 0.16 0.12
0.00 0.00 0.00 0.00 0.00 0.00 0.00 0.00 0.00 0.00 0.00 0.00 0.00 0.00 0.00 0.00 0.00 0.00 0.00 0.00 0.00 0.00 0.00 0.00 0.00 0.00 0.00 0.00 0.00 0.01 0.01 0.03 0.05 0.05 0.04 0.02 0.03 0.06 0.14 0.15 0.14 0.21 0.26
0.00 0.00 0.00 0.00 0.00 0.00 0.00 0.00 0.00 0.00 0.00 0.00 0.00 0.00 0.00 0.00 0.00 0.00 0.00 0.00 0.00 0.00 0.00 0.00 0.00 0.00 0.00 0.01 0.01 0.01 0.03 0.04 0.03 0.02 0.03 0.04 0.06 0.06 0.10 0.11 0.15 0.24 0.18
0.00 0.00 0.00 0.00 0.00 0.00 0.00 0.00 0.00 0.00 0.00 0.00 0.00 0.00 0.00 0.00 0.00 0.00 0.00 0.00 0.00 0.00 0.00 0.00 0.00 0.00 0.00 0.01 0.01 0.04 0.03 0.01 0.01 0.01 0.01 0.02 0.03 0.05 0.07 0.12 0.11 0.18 0.27
0.00 0.00 0.00 0.00 0.00 0.00 0.00 0.00 0.00 0.00 0.00 0.00 0.00 0.00 0.00 0.00 0.00 0.00 0.00 0.00 0.00 0.00 0.00 0.00 0.00 0.00 0.00 0.01 0.03 0.01 0.00 0.00 0.01 0.01 0.01 0.01 0.02 0.04 0.07 0.12 0.41 0.58 0.35
0.00 0.00 0.00 0.00 0.00 0.00 0.00 0.00 0.00 0.00 0.00 0.00 0.00 0.00 0.00 0.00 0.00 0.00 0.00 0.00 0.00 0.00 0.00 0.00 0.00 0.00 0.00 0.02 0.01 0.00 0.00 0.00 0.00 0.01 0.01 0.01 0.02 0.04 0.06 0.09 0.16 0.34 0.35
0.00 0.00 0.00 0.00 0.00 0.00 0.00 0.00 0.00 0.00 0.00 0.00 0.00 0.00 0.00 0.00 0.00 0.00 0.00 0.00 0.00 0.00 0.00 0.00 0.00 0.00 0.01 0.01 0.00 0.00 0.00 0.00 0.00 0.01 0.01 0.01 0.02 0.03 0.06 0.10 0.10 0.13 0.16
0.00 0.00 0.00 0.00 0.00 0.00 0.00 0.00 0.00 0.00 0.00 0.00 0.00 0.00 0.00 0.00 0.00 0.00 0.00 0.00 0.00 0.00 0.00 0.00 0.00 0.00 0.01 0.00 0.00 0.01 0.00 0.00 0.00 0.01 0.01 0.01 0.01 0.03 0.06 0.08 0.10 0.11 0.14
0.00 0.00 0.00 0.00 0.00 0.00 0.00 0.00 0.00 0.00 0.00 0.00 0.00 0.00 0.00 0.00 0.00 0.00 0.00 0.00 0.00 0.00 0.00 0.00 0.00 0.00 0.00 0.00 0.01 0.01 0.00 0.01 0.02 0.01 0.01 0.01 0.02 0.03 0.05 0.10 0.15 0.16 0.11
0.00 0.00 0.00 0.00 0.00 0.00 0.00 0.00 0.00 0.00 0.00 0.00 0.00 0.00 0.00 0.00 0.00 0.00 0.00 0.00 0.00 0.00 0.00 0.00 0.00 0.00 0.00 0.01 0.01 0.00 0.01 0.02 0.03 0.04 0.04 0.04 0.05 0.05 0.06 0.15 0.17 0.18 0.19
0.00 0.00 0.00 0.00 0.00 0.00 0.00 0.00 0.00 0.00 0.00 0.00 0.00 0.00 0.00 0.00 0.00 0.00 0.00 0.00 0.00 0.00 0.00 0.00 0.00 0.00 0.00 0.00 0.01 0.01 0.01 0.02 0.03 0.07 0.08 0.10 0.11 0.13 0.21 0.19 0.23 0.29 0.19
0.00 0.00 0.00 0.00 0.00 0.00 0.00 0.00 0.00 0.00 0.00 0.00 0.00 0.00 0.00 0.00 0.00 0.00 0.00 0.00 0.00 0.00 0.00 0.00 0.00 0.00 0.00 0.00 0.00 0.02 0.03 0.02 0.04 0.07 0.13 0.22 0.30 0.27 0.31 0.37 0.30 0.28 0.47
0.00 0.00 0.00 0.00 0.00 0.00 0.00 0.00 0.00 0.00 0.00 0.00 0.00 0.00 0.00 0.00 0.00 0.00 0.00 0.00 0.00 0.00 0.00 0.00 0.00 0.00 0.00 0.00 0.00 0.02 0.03 0.02 0.04 0.07 0.08 0.14 0.30 0.33 0.39 0.36 0.39 0.44 0.48
0.00 0.00 0.00 0.00 0.00 0.00 0.00 0.00 0.00 0.00 0.00 0.00 0.00 0.01 0.01 0.01 0.01 0.01 0.01 0.00 0.00 0.00 0.00 0.00 0.00 0.00 0.00 0.00 0.01 0.01 0.01 0.03 0.05 0.07 0.09 0.12 0.20 0.29 0.34 0.42 0.41 0.46 0.46
0.00 0.00 0.00 0.00 0.00 0.00 0.00 0.00 0.00 0.00 0.01 0.01 0.01 0.02 0.04 0.06 0.07 0.08 0.03 0.00 0.00 0.00 0.00 0.00 0.00 0.00 0.00 0.00 0.01 0.01 0.00 0.00 0.02 0.05 0.09 0.13 0.13 0.21 0.30 0.36 0.41 0.44 0.54
0.00 0.00 0.00 0.00 0.00 0.00 0.00 0.01 0.03 0.05 0.07 0.10 0.13 0.16 0.19 0.22 0.18 0.07 0.01 0.00 0.00 0.00 0.00 0.00 0.00 0.00 0.00 0.00 0.01 0.01 0.00 0.00 0.00 0.00 0.03 0.07 0.10 0.14 0.24 0.31 0.34 0.41 0.44
0.00 0.00 0.01 0.00 0.00 0.01 0.03 0.08 0.13 0.16 0.23 0.28 0.32 0.36 0.35 0.27 0.13 0.03 0.01 0.00 0.00 0.00 0.00 0.00 0.00 0.00 0.00 0.00 0.01 0.01 0.01 0.01 0.01 0.00 0.00 0.01 0.03 0.08 0.16 0.21 0.29 0.39 0.47
0.00 0.00 0.02 0.02 0.01 0.02 0.05 0.10 0.15 0.22 0.27 0.31 0.34 0.31 0.22 0.10 0.03 0.00 0.00 0.00 0.00 0.00 0.00 0.00 0.00 0.00 0.00 0.00 0.01 0.01 0.01 0.02 0.02 0.01 0.01 0.01 0.01 0.05 0.06 0.08 0.13 0.24 0.28
0.00 0.00 0.00 0.01 0.01 0.01 0.02 0.08 0.17 0.22 0.28 0.32 0.28 0.19 0.08 0.02 0.00 0.00 0.00 0.00 0.00 0.00 0.00 0.00 0.00 0.00 0.00 0.01 0.01 0.01 0.01 0.02 0.02 0.02 0.02 0.01 0.03 0.03 0.02 0.04 0.08 0.09 0.08
0.00 0.00 0.00 0.01 0.01 0.00 0.01 0.02 0.04 0.09 0.15 0.15 0.12 0.06 0.02 0.00 0.00 0.00 0.00 0.00 0.01 0.01 0.01 0.01 0.01 0.01 0.00 0.01 0.01 0.01 0.01 0.02 0.01 0.01 0.01 0.01 0.02 0.01 0.01 0.01 0.03 0.05 0.07
0.00 0.00 0.00 0.01 0.01 0.02 0.04 0.08 0.14 0.19 0.16 0.10 0.06 0.02 0.00 0.00 0.00 0.00 0.00 0.01 0.03 0.02 0.02 0.02 0.02 0.02 0.01 0.02 0.04 0.03 0.02 0.01 0.01 0.01 0.00 0.01 0.01 0.00 0.00 0.01 0.01 0.02 0.05
0.00 0.00 0.00 0.00 0.02 0.05 0.08 0.12 0.17 0.15 0.10 0.05 0.02 0.00 0.00 0.00 0.01 0.01 0.01 0.02 0.03 0.03 0.03 0.03 0.03 0.05 0.06 0.06 0.06 0.06 0.04 0.02 0.02 0.00 0.01 0.01 0.01 0.01 0.00 0.01 0.01 0.00 0.01
0.00 0.00 0.00 0.00 0.01 0.03 0.04 0.08 0.06 0.02 0.01 0.00 0.00 0.00 0.00 0.01 0.01 0.01 0.00 0.01 0.00 0.00 0.00 0.01 0.02 0.03 0.03 0.03 0.03 0.03 0.02 0.02 0.01 0.01 0.01 0.02 0.02 0.02 0.02 0.02 0.02 0.01 0.02

GFSMW_prec_precacc24_192.txt.gz
Total_Precipitation_Accumulation
0.00 0.00 0.00 0.00 0.00 0.00 0.00 0.00 0.00 0.00 0.00 0.00 0.00 0.00 0.00 0.00 0.00 0.00 0.00 0.00 0.00 0.00 0.00 0.00 0.00 0.00 0.00 0.00 0.00 0.00 0.00 0.00 0.00 0.00 0.00 0.00 0.00 0.00 0.00 0.00 0.01 0.04 0.07
0.00 0.00 0.00 0.00 0.00 0.00 0.00 0.00 0.00 0.00 0.00 0.00 0.00 0.00 0.00 0.00 0.00 0.00 0.00 0.00 0.00 0.00 0.00 0.00 0.00 0.00 0.00 0.00 0.00 0.00 0.00 0.00 0.00 0.00 0.00 0.00 0.00 0.00 0.00 0.00 0.01 0.02 0.06
0.00 0.00 0.00 0.00 0.00 0.00 0.00 0.00 0.00 0.00 0.00 0.00 0.00 0.00 0.00 0.00 0.00 0.00 0.00 0.00 0.00 0.00 0.00 0.00 0.00 0.00 0.00 0.00 0.00 0.00 0.00 0.00 0.00 0.00 0.01 0.02 0.01 0.00 0.00 0.00 0.00 0.01 0.03
0.00 0.00 0.00 0.00 0.00 0.00 0.00 0.00 0.00 0.00 0.02 0.00 0.00 0.00 0.00 0.00 0.00 0.00 0.00 0.00 0.00 0.00 0.00 0.00 0.00 0.00 0.00 0.00 0.00 0.00 0.00 0.01 0.01 0.00 0.00 0.02 0.03 0.03 0.01 0.00 0.00 0.00 0.01
0.00 0.00 0.00 0.00 0.00 0.00 0.00 0.00 0.00 0.01 0.01 0.00 0.00 0.00 0.00 0.00 0.00 0.00 0.00 0.00 0.00 0.00 0.00 0.00 0.00 0.00 0.00 0.00 0.00 0.00 0.00 0.01 0.02 0.02 0.01 0.01 0.01 0.01 0.02 0.01 0.00 0.00 0.00
0.00 0.00 0.00 0.00 0.00 0.00 0.00 0.00 0.00 0.01 0.00 0.00 0.00 0.00 0.00 0.00 0.00 0.00 0.00 0.00 0.00 0.00 0.00 0.00 0.00 0.00 0.00 0.00 0.00 0.00 0.01 0.00 0.00 0.00 0.01 0.01 0.02 0.02 0.04 0.03 0.01 0.01 0.00
0.00 0.00 0.00 0.00 0.00 0.00 0.00 0.00 0.00 0.00 0.00 0.00 0.00 0.00 0.00 0.00 0.00 0.00 0.00 0.00 0.00 0.00 0.00 0.00 0.00 0.00 0.00 0.00 0.00 0.00 0.00 0.00 0.00 0.00 0.00 0.00 0.01 0.01 0.03 0.04 0.02 0.01 0.01
0.00 0.00 0.00 0.00 0.00 0.00 0.00 0.00 0.00 0.00 0.00 0.00 0.00 0.00 0.00 0.00 0.00 0.00 0.00 0.00 0.00 0.00 0.00 0.00 0.00 0.00 0.00 0.00 0.00 0.00 0.00 0.00 0.00 0.00 0.00 0.00 0.00 0.01 0.02 0.05 0.08 0.06 0.01
0.00 0.00 0.00 0.00 0.00 0.00 0.00 0.00 0.00 0.00 0.00 0.00 0.00 0.00 0.00 0.00 0.00 0.00 0.00 0.00 0.00 0.00 0.00 0.00 0.00 0.00 0.00 0.00 0.00 0.00 0.00 0.00 0.00 0.00 0.00 0.00 0.01 0.01 0.02 0.04 0.06 0.12 0.13
0.00 0.00 0.00 0.00 0.00 0.00 0.00 0.00 0.00 0.00 0.00 0.00 0.00 0.00 0.00 0.00 0.00 0.00 0.00 0.00 0.00 0.00 0.00 0.00 0.00 0.00 0.00 0.00 0.00 0.00 0.00 0.00 0.00 0.00 0.00 0.00 0.01 0.01 0.02 0.04 0.03 0.05 0.09
0.00 0.00 0.00 0.00 0.00 0.00 0.00 0.00 0.00 0.00 0.00 0.00 0.00 0.00 0.00 0.00 0.00 0.00 0.00 0.00 0.00 0.00 0.00 0.00 0.00 0.00 0.00 0.00 0.00 0.00 0.00 0.00 0.00 0.00 0.00 0.00 0.01 0.02 0.03 0.02 0.03 0.04 0.08
0.00 0.00 0.00 0.00 0.00 0.00 0.00 0.00 0.00 0.00 0.00 0.00 0.00 0.00 0.00 0.00 0.00 0.00 0.00 0.00 0.00 0.00 0.00 0.00 0.00 0.00 0.00 0.00 0.00 0.00 0.00 0.00 0.00 0.00 0.00 0.00 0.02 0.02 0.02 0.03 0.03 0.06 0.04
0.00 0.00 0.00 0.00 0.00 0.00 0.00 0.00 0.00 0.00 0.00 0.00 0.00 0.00 0.00 0.00 0.00 0.00 0.01 0.01 0.02 0.01 0.00 0.00 0.00 0.00 0.00 0.00 0.00 0.00 0.00 0.00 0.01 0.00 0.01 0.02 0.04 0.02 0.02 0.05 0.05 0.05 0.02
0.00 0.00 0.00 0.00 0.00 0.00 0.00 0.00 0.00 0.00 0.00 0.00 0.00 0.00 0.00 0.01 0.02 0.03 0.03 0.04 0.03 0.01 0.00 0.00 0.00 0.00 0.00 0.00 0.00 0.00 0.00 0.00 0.00 0.01 0.01 0.02 0.02 0.03 0.08 0.07 0.05 0.03 0.03
0.00 0.00 0.00 0.00 0.00 0.00 0.00 0.00 0.00 0.00 0.00 0.00 0.00 0.00 0.00 0.01 0.01 0.03 0.05 0.06 0.05 0.02 0.00 0.00 0.00 0.00 0.00 0.00 0.00 0.00 0.00 0.00 0.01 0.01 0.01 0.01 0.01 0.03 0.05 0.09 0.06 0.06 0.08
0.00 0.00 0.00 0.00 0.00 0.00 0.00 0.00 0.00 0.00 0.00 0.00 0.00 0.00 0.01 0.01 0.02 0.02 0.04 0.05 0.03 0.00 0.00 0.01 0.00 0.00 0.00 0.00 0.00 0.00 0.00 0.00 0.01 0.01 0.01 0.01 0.01 0.01 0.03 0.02 0.04 0.09 0.13
0.00 0.00 0.00 0.00 0.00 0.00 0.00 0.00 0.00 0.00 0.00 0.00 0.00 0.01 0.02 0.03 0.04 0.06 0.09 0.10 0.09 0.08 0.05 0.02 0.01 0.00 0.01 0.00 0.00 0.00 0.00 0.01 0.01 0.01 0.01 0.01 0.02 0.02 0.02 0.02 0.03 0.06 0.07
0.00 0.00 0.00 0.00 0.00 0.00 0.00 0.00 0.00 0.00 0.01 0.02 0.03 0.04 0.08 0.12 0.17 0.22 0.25 0.24 0.20 0.14 0.10 0.07 0.06 0.04 0.01 0.00 0.00 0.00 0.00 0.00 0.00 0.01 0.01 0.01 0.02 0.02 0.01 0.05 0.03 0.06 0.07
0.00 0.00 0.00 0.00 0.00 0.00 0.00 0.01 0.03 0.05 0.08 0.11 0.15 0.20 0.26 0.32 0.37 0.39 0.39 0.36 0.29 0.22 0.16 0.11 0.06 0.02 0.01 0.01 0.00 0.00 0.00 0.00 0.00 0.00 0.00 0.01 0.02 0.01 0.02 0.06 0.04 0.04 0.08
0.00 0.00 0.01 0.00 0.00 0.01 0.03 0.08 0.14 0.19 0.27 0.32 0.38 0.42 0.47 0.51 0.52 0.49 0.44 0.35 0.26 0.18 0.11 0.08 0.04 0.02 0.01 0.00 0.00 0.01 0.00 0.01 0.01 0.00 0.00 0.00 0.01 0.02 0.04 0.03 0.04 0.07 0.09
0.00 0.00 0.02 0.02 0.01 0.02 0.05 0.10 0.15 0.24 0.34 0.49 0.67 0.75 0.74 0.71 0.62 0.50 0.37 0.26 0.17 0.10 0.06 0.04 0.02 0.01 0.00 0.00 0.00 0.00 0.01 0.01 0.02 0.01 0.01 0.01 0.01 0.04 0.03 0.01 0.03 0.09 0.06
0.00 0.01 0.01 0.02 0.02 0.01 0.02 0.09 0.21 0.34 0.47 0.59 0.63 0.59 0.52 0.45 0.38 0.29 0.24 0.17 0.10 0.06 0.04 0.02 0.01 0.00 0.00 0.00 0.01 0.00 0.01 0.01 0.02 0.02 0.02 0.01 0.02 0.03 0.01 0.01 0.02 0.02 0.02
0.00 0.00 0.01 0.02 0.05 0.06 0.06 0.07 0.12 0.21 0.36 0.45 0.32 0.28 0.25 0.22 0.19 0.15 0.13 0.09 0.06 0.04 0.02 0.01 0.00 0.00 0.00 0.00 0.00 0.00 0.01 0.01 0.01 0.01 0.01 0.01 0.02 0.01 0.01 0.01 0.01 0.01 0.01
0.00 0.00 0.00 0.01 0.01 0.03 0.06 0.13 0.16 0.27 0.32 0.33 0.24 0.17 0.13 0.12 0.10 0.09 0.06 0.04 0.03 0.02 0.01 0.01 0.01 0.01 0.00 0.01 0.01 0.02 0.01 0.01 0.01 0.01 0.00 0.01 0.01 0.00 0.00 0.01 0.01 0.01 0.01
0.00 0.00 0.00 0.00 0.02 0.05 0.08 0.13 0.18 0.17 0.15 0.14 0.12 0.12 0.10 0.07 0.06 0.04 0.02 0.01 0.01 0.00 0.00 0.01 0.01 0.02 0.02 0.01 0.02 0.03 0.03 0.02 0.02 0.00 0.01 0.01 0.01 0.01 0.00 0.01 0.01 0.00 0.01
0.00 0.00 0.00 0.00 0.01 0.04 0.05 0.10 0.10 0.05 0.03 0.05 0.07 0.05 0.05 0.04 0.02 0.02 0.01 0.00 0.00 0.00 0.00 0.00 0.01 0.02 0.01 0.01 0.02 0.02 0.02 0.01 0.01 0.01 0.01 0.02 0.02 0.02 0.02 0.02 0.01 0.01 0.01

GFSMW_prec_precacc24_195.txt.gz
Total_Precipitation_Accumulation
0.00 0.00 0.00 0.00 0.00 0.00 0.00 0.00 0.00 0.00 0.00 0.00 0.00 0.00 0.00 0.00 0.00 0.00 0.00 0.00 0.00 0.00 0.00 0.00 0.00 0.00 0.00 0.00 0.00 0.00 0.00 0.00 0.00 0.00 0.00 0.00 0.00 0.00 0.00 0.00 0.00 0.00 0.00
0.00 0.00 0.00 0.00 0.00 0.00 0.00 0.00 0.00 0.00 0.00 0.00 0.00 0.00 0.00 0.00 0.00 0.00 0.00 0.00 0.00 0.00 0.00 0.00 0.00 0.00 0.00 0.00 0.00 0.00 0.00 0.00 0.00 0.00 0.00 0.00 0.00 0.00 0.00 0.00 0.00 0.00 0.00
0.00 0.00 0.00 0.00 0.00 0.00 0.00 0.00 0.00 0.00 0.00 0.00 0.01 0.00 0.00 0.00 0.00 0.00 0.00 0.00 0.00 0.00 0.00 0.00 0.00 0.00 0.00 0.00 0.00 0.00 0.00 0.00 0.00 0.00 0.00 0.01 0.01 0.00 0.00 0.00 0.00 0.00 0.00
0.00 0.00 0.00 0.00 0.00 0.00 0.00 0.00 0.00 0.00 0.03 0.02 0.01 0.01 0.01 0.00 0.00 0.00 0.00 0.00 0.00 0.00 0.00 0.00 0.00 0.00 0.00 0.00 0.00 0.00 0.00 0.00 0.00 0.00 0.00 0.01 0.01 0.02 0.01 0.00 0.00 0.00 0.00
0.00 0.00 0.00 0.00 0.00 0.00 0.00 0.00 0.00 0.02 0.06 0.06 0.04 0.04 0.03 0.01 0.00 0.00 0.00 0.00 0.00 0.00 0.00 0.00 0.00 0.00 0.00 0.00 0.00 0.00 0.00 0.00 0.01 0.01 0.00 0.00 0.00 0.00 0.01 0.01 0.00 0.00 0.00
0.00 0.00 0.00 0.00 0.00 0.00 0.00 0.00 0.00 0.01 0.04 0.06 0.03 0.02 0.03 0.01 0.00 0.00 0.00 0.00 0.00 0.00 0.00 0.00 0.00 0.00 0.00 0.00 0.00 0.00 0.00 0.00 0.00 0.00 0.00 0.00 0.01 0.01 0.02 0.02 0.00 0.00 0.00
0.00 0.00 0.00 0.00 0.00 0.00 0.00 0.00 0.00 0.00 0.00 0.01 0.02 0.02 0.01 0.00 0.00 0.00 0.00 0.00 0.00 0.00 0.00 0.00 0.00 0.00 0.00 0.00 0.00 0.00 0.00 0.00 0.00 0.00 0.00 0.00 0.00 0.00 0.01 0.03 0.01 0.00 0.00
0.00 0.00 0.00 0.00 0.00 0.00 0.00 0.00 0.00 0.00 0.00 0.00 0.00 0.01 0.01 0.00 0.00 0.00 0.00 0.00 0.00 0.00 0.00 0.00 0.00 0.00 0.00 0.00 0.00 0.00 0.00 0.00 0.00 0.00 0.00 0.00 0.00 0.00 0.01 0.04 0.06 0.05 0.00
0.00 0.00 0.00 0.00 0.00 0.00 0.00 0.00 0.00 0.00 0.00 0.00 0.00 0.00 0.00 0.00 0.00 0.00 0.00 0.00 0.00 0.00 0.00 0.00 0.00 0.00 0.00 0.00 0.00 0.00 0.00 0.00 0.00 0.00 0.00 0.00 0.00 0.01 0.01 0.03 0.05 0.10 0.10
0.00 0.00 0.00 0.00 0.00 0.00 0.00 0.00 0.00 0.00 0.00 0.00 0.00 0.00 0.00 0.00 0.00 0.00 0.00 0.00 0.00 0.00 0.00 0.00 0.00 0.00 0.00 0.00 0.00 0.00 0.00 0.00 0.00 0.00 0.00 0.00 0.00 0.00 0.01 0.03 0.02 0.04 0.07
0.00 0.00 0.00 0.00 0.00 0.00 0.00 0.00 0.00 0.00 0.00 0.00 0.00 0.00 0.00 0.00 0.00 0.00 0.00 0.00 0.00 0.00 0.00 0.00 0.00 0.00 0.00 0.00 0.00 0.00 0.00 0.00 0.00 0.00 0.00 0.00 0.00 0.01 0.02 0.01 0.02 0.02 0.06
0.00 0.00 0.00 0.00 0.00 0.00 0.00 0.00 0.00 0.00 0.00 0.00 0.00 0.00 0.00 0.00 0.00 0.00 0.00 0.00 0.00 0.00 0.00 0.00 0.00 0.00 0.00 0.00 0.00 0.00 0.00 0.00 0.00 0.00 0.00 0.00 0.01 0.02 0.01 0.01 0.02 0.04 0.03
0.00 0.00 0.00 0.00 0.00 0.00 0.00 0.00 0.00 0.00 0.00 0.00 0.00 0.00 0.00 0.00 0.00 0.00 0.01 0.01 0.02 0.01 0.01 0.01 0.00 0.00 0.00 0.00 0.00 0.00 0.00 0.00 0.00 0.00 0.00 0.01 0.03 0.01 0.01 0.03 0.04 0.04 0.01
0.00 0.00 0.00 0.00 0.00 0.00 0.00 0.00 0.00 0.00 0.00 0.00 0.00 0.00 0.00 0.01 0.02 0.03 0.03 0.04 0.03 0.03 0.02 0.02 0.02 0.02 0.01 0.01 0.00 0.00 0.00 0.00 0.00 0.00 0.01 0.02 0.01 0.01 0.05 0.05 0.04 0.02 0.02
0.00 0.00 0.00 0.00 0.00 0.00 0.00 0.00 0.00 0.00 0.00 0.00 0.00 0.00 0.00 0.01 0.01 0.03 0.05 0.06 0.06 0.06 0.06 0.06 0.05 0.04 0.02 0.01 0.01 0.00 0.00 0.00 0.00 0.00 0.01 0.01 0.01 0.02 0.03 0.06 0.03 0.03 0.05
0.00 0.00 0.00 0.00 0.00 0.00 0.00 0.00 0.00 0.00 0.00 0.00 0.00 0.00 0.01 0.01 0.02 0.02 0.04 0.05 0.05 0.03 0.03 0.03 0.02 0.02 0.01 0.01 0.01 0.01 0.00 0.00 0.00 0.01 0.00 0.00 0.01 0.01 0.03 0.01 0.02 0.02 0.04
0.00 0.00 0.00 0.00 0.00 0.00 0.00 0.00 0.00 0.00 0.00 0.00 0.00 0.01 0.02 0.03 0.04 0.06 0.09 0.10 0.10 0.10 0.08 0.06 0.05 0.05 0.03 0.03 0.03 0.02 0.00 0.00 0.00 0.00 0.00 0.00 0.01 0.02 0.01 0.01 0.02 0.00 0.00
0.00 0.00 0.00 0.00 0.00 0.00 0.00 0.00 0.00 0.00 0.01 0.02 0.03 0.04 0.08 0.12 0.17 0.22 0.25 0.25 0.25 0.23 0.21 0.21 0.20 0.18 0.12 0.10 0.05 0.01 0.00 0.00 0.00 0.00 0.00 0.01 0.01 0.02 0.01 0.04 0.03 0.00 0.00
0.00 0.00 0.00 0.00 0.00 0.00 0.00 0.01 0.03 0.05 0.08 0.11 0.15 0.20 0.26 0.32 0.37 0.39 0.40 0.40 0.39 0.38 0.35 0.30 0.25 0.17 0.11 0.09 0.04 0.00 0.00 0.00 0.00 0.00 0.00 0.00 0.01 0.01 0.02 0.05 0.02 0.01 0.00
0.00 0.00 0.01 0.00 0.00 0.01 0.03 0.08 0.14 0.19 0.27 0.32 0.38 0.42 0.47 0.51 0.53 0.51 0.49 0.47 0.44 0.39 0.31 0.25 0.17 0.11 0.09 0.09 0.04 0.01 0.00 0.00 0.00 0.00 0.00 0.00 0.00 0.01 0.03 0.02 0.03 0.05 0.04
0.00 0.00 0.02 0.02 0.01 0.02 0.05 0.10 0.15 0.24 0.34 0.49 0.67 0.75 0.76 0.74 0.69 0.66 0.59 0.52 0.43 0.31 0.22 0.16 0.13 0.08 0.05 0.06 0.03 0.01 0.00 0.01 0.01 0.01 0.01 0.00 0.01 0.04 0.03 0.01 0.02 0.07 0.02
0.00 0.01 0.01 0.02 0.02 0.01 0.02 0.09 0.21 0.34 0.48 0.61 0.69 0.71 0.69 0.64 0.58 0.51 0.48 0.41 0.28 0.21 0.17 0.13 0.11 0.07 0.04 0.03 0.01 0.00 0.00 0.01 0.01 0.01 0.01 0.00 0.02 0.02 0.01 0.01 0.02 0.01 0.00
0.00 0.00 0.01 0.02 0.05 0.06 0.07 0.11 0.16 0.28 0.48 0.63 0.57 0.50 0.44 0.39 0.36 0.32 0.30 0.26 0.19 0.15 0.14 0.11 0.08 0.04 0.01 0.01 0.00 0.00 0.01 0.01 0.00 0.01 0.00 0.01 0.02 0.01 0.00 0.00 0.01 0.01 0.01
0.00 0.00 0.00 0.01 0.01 0.03 0.06 0.15 0.26 0.40 0.51 0.52 0.45 0.38 0.31 0.25 0.22 0.21 0.17 0.14 0.12 0.09 0.07 0.05 0.03 0.01 0.00 0.00 0.00 0.01 0.01 0.00 0.01 0.00 0.00 0.01 0.00 0.00 0.00 0.00 0.00 0.01 0.01
0.00 0.00 0.00 0.00 0.02 0.05 0.08 0.13 0.25 0.27 0.22 0.19 0.18 0.20 0.17 0.11 0.11 0.10 0.08 0.06 0.05 0.02 0.02 0.01 0.01 0.01 0.01 0.01 0.01 0.02 0.02 0.01 0.01 0.00 0.01 0.01 0.01 0.00 0.00 0.00 0.00 0.00 0.01
0.00 0.00 0.00 0.00 0.01 0.04 0.06 0.10 0.10 0.07 0.05 0.08 0.09 0.08 0.08 0.08 0.05 0.04 0.06 0.05 0.02 0.01 0.00 0.00 0.01 0.01 0.00 0.01 0.01 0.02 0.02 0.01 0.01 0.00 0.01 0.01 0.01 0.01 0.01 0.01 0.01 0.00 0.01

GFSMW_prec_precacc24_198.txt.gz
Total_Precipitation_Accumulation
0.00 0.00 0.00 0.00 0.00 0.00 0.00 0.00 0.00 0.00 0.00 0.00 0.00 0.00 0.00 0.00 0.00 0.00 0.00 0.00 0.00 0.00 0.00 0.00 0.00 0.00 0.00 0.00 0.00 0.00 0.00 0.00 0.00 0.00 0.00 0.00 0.00 0.00 0.00 0.00 0.00 0.00 0.00
0.00 0.00 0.00 0.00 0.00 0.00 0.00 0.00 0.01 0.00 0.00 0.00 0.00 0.00 0.00 0.00 0.00 0.00 0.00 0.00 0.00 0.00 0.00 0.00 0.00 0.00 0.00 0.00 0.00 0.00 0.00 0.00 0.00 0.00 0.00 0.00 0.00 0.00 0.00 0.00 0.00 0.00 0.00
0.00 0.00 0.00 0.00 0.00 0.00 0.00 0.00 0.00 0.00 0.00 0.00 0.01 0.00 0.00 0.00 0.00 0.00 0.00 0.00 0.00 0.00 0.00 0.00 0.00 0.00 0.00 0.00 0.00 0.00 0.00 0.00 0.00 0.00 0.00 0.01 0.00 0.00 0.00 0.00 0.00 0.00 0.00
0.00 0.00 0.00 0.00 0.00 0.00 0.00 0.00 0.00 0.01 0.03 0.02 0.01 0.01 0.01 0.01 0.00 0.00 0.00 0.00 0.00 0.00 0.00 0.00 0.00 0.00 0.00 0.00 0.00 0.00 0.00 0.00 0.00 0.00 0.00 0.00 0.01 0.01 0.00 0.00 0.00 0.00 0.00
0.00 0.00 0.00 0.00 0.00 0.00 0.00 0.00 0.00 0.02 0.06 0.07 0.04 0.04 0.05 0.04 0.01 0.00 0.00 0.00 0.00 0.00 0.00 0.00 0.00 0.00 0.00 0.00 0.00 0.00 0.00 0.00 0.00 0.00 0.00 0.00 0.00 0.00 0.00 0.00 0.00 0.00 0.00
0.00 0.00 0.00 0.00 0.00 0.00 0.00 0.00 0.00 0.01 0.04 0.06 0.03 0.03 0.05 0.03 0.01 0.01 0.00 0.00 0.00 0.00 0.00 0.00 0.00 0.00 0.00 0.00 0.00 0.00 0.00 0.00 0.00 0.00 0.00 0.00 0.00 0.00 0.01 0.01 0.00 0.00 0.00
0.00 0.00 0.00 0.00 0.02 0.01 0.00 0.00 0.00 0.00 0.00 0.01 0.02 0.02 0.03 0.02 0.01 0.00 0.01 0.00 0.00 0.00 0.00 0.00 0.00 0.00 0.00 0.00 0.00 0.00 0.00 0.00 0.00 0.00 0.00 0.00 0.00 0.00 0.01 0.02 0.01 0.00 0.00
0.00 0.00 0.00 0.00 0.00 0.00 0.00 0.00 0.00 0.00 0.00 0.00 0.00 0.01 0.01 0.01 0.00 0.00 0.00 0.00 0.00 0.00 0.00 0.00 0.00 0.00 0.00 0.00 0.00 0.00 0.00 0.00 0.00 0.00 0.00 0.00 0.00 0.00 0.01 0.03 0.04 0.03 0.00
0.00 0.00 0.00 0.00 0.00 0.00 0.00 0.00 0.00 0.00 0.00 0.00 0.00 0.00 0.00 0.00 0.00 0.00 0.00 0.00 0.00 0.00 0.00 0.00 0.00 0.00 0.00 0.00 0.00 0.00 0.00 0.00 0.00 0.00 0.00 0.00 0.00 0.00 0.00 0.02 0.03 0.06 0.06
0.00 0.00 0.00 0.00 0.00 0.00 0.00 0.00 0.00 0.00 0.00 0.00 0.00 0.00 0.00 0.00 0.00 0.00 0.00 0.00 0.00 0.01 0.01 0.00 0.00 0.00 0.00 0.00 0.00 0.00 0.00 0.00 0.00 0.00 0.00 0.00 0.00 0.00 0.01 0.02 0.01 0.03 0.04
0.00 0.00 0.00 0.00 0.00 0.00 0.00 0.00 0.00 0.00 0.00 0.00 0.00 0.00 0.00 0.00 0.00 0.00 0.00 0.00 0.00 0.00 0.01 0.02 0.03 0.01 0.00 0.00 0.00 0.00 0.00 0.00 0.00 0.00 0.00 0.00 0.00 0.01 0.01 0.00 0.01 0.01 0.05
0.00 0.00 0.00 0.00 0.00 0.00 0.00 0.00 0.00 0.00 0.00 0.00 0.00 0.00 0.00 0.00 0.00 0.00 0.00 0.00 0.00 0.00 0.00 0.00 0.00 0.01 0.00 0.00 0.00 0.00 0.00 0.00 0.00 0.00 0.00 0.00 0.01 0.02 0.00 0.00 0.01 0.03 0.02
0.00 0.00 0.00 0.00 0.00 0.00 0.00 0.00 0.00 0.00 0.00 0.00 0.00 0.00 0.00 0.00 0.00 0.00 0.01 0.01 0.02 0.01 0.01 0.01 0.00 0.00 0.00 0.00 0.00 0.01 0.01 0.01 0.01 0.01 0.00 0.01 0.04 0.02 0.01 0.02 0.03 0.03 0.00
0.00 0.00 0.00 0.00 0.00 0.00 0.00 0.00 0.00 0.00 0.00 0.00 0.00 0.00 0.00 0.01 0.02 0.03 0.03 0.04 0.03 0.03 0.02 0.02 0.02 0.02 0.01 0.01 0.01 0.01 0.01 0.01 0.01 0.01 0.01 0.02 0.03 0.01 0.04 0.03 0.04 0.01 0.01
0.00 0.00 0.00 0.00 0.00 0.00 0.00 0.00 0.00 0.00 0.00 0.00 0.00 0.00 0.00 0.01 0.01 0.03 0.05 0.06 0.06 0.06 0.06 0.06 0.05 0.04 0.02 0.01 0.01 0.01 0.01 0.01 0.01 0.02 0.02 0.02 0.01 0.01 0.02 0.05 0.02 0.02 0.04
0.00 0.00 0.00 0.00 0.00 0.00 0.00 0.00 0.00 0.00 0.00 0.00 0.00 0.00 0.01 0.01 0.02 0.02 0.04 0.05 0.05 0.03 0.03 0.03 0.02 0.02 0.01 0.01 0.02 0.02 0.01 0.01 0.03 0.03 0.02 0.00 0.01 0.01 0.02 0.01 0.01 0.02 0.02
0.00 0.00 0.00 0.00 0.00 0.00 0.00 0.00 0.00 0.00 0.00 0.00 0.00 0.01 0.02 0.03 0.04 0.06 0.09 0.10 0.10 0.10 0.08 0.07 0.05 0.05 0.04 0.05 0.08 0.06 0.05 0.04 0.04 0.02 0.01 0.00 0.00 0.01 0.01 0.01 0.02 0.00 0.00
0.00 0.00 0.00 0.00 0.00 0.00 0.00 0.00 0.00 0.00 0.01 0.02 0.03 0.04 0.08 0.12 0.17 0.22 0.25 0.25 0.25 0.23 0.21 0.23 0.25 0.29 0.22 0.21 0.16 0.10 0.06 0.04 0.02 0.00 0.00 0.00 0.00 0.01 0.01 0.04 0.02 0.01 0.00
0.00 0.00 0.00 0.00 0.00 0.00 0.00 0.01 0.03 0.05 0.08 0.11 0.15 0.20 0.26 0.32 0.37 0.39 0.40 0.40 0.40 0.42 0.45 0.42 0.42 0.32 0.26 0.22 0.14 0.06 0.03 0.01 0.01 0.00 0.00 0.00 0.00 0.00 0.02 0.04 0.02 0.00 0.00
0.00 0.01 0.01 0.01 0.01 0.01 0.03 0.08 0.14 0.19 0.27 0.33 0.38 0.42 0.47 0.51 0.53 0.51 0.49 0.47 0.46 0.49 0.46 0.42 0.34 0.20 0.20 0.20 0.11 0.04 0.01 0.01 0.00 0.00 0.00 0.00 0.00 0.01 0.03 0.02 0.02 0.03 0.04
0.00 0.00 0.02 0.02 0.02 0.02 0.05 0.10 0.15 0.24 0.34 0.49 0.67 0.75 0.76 0.74 0.70 0.68 0.62 0.59 0.58 0.51 0.42 0.33 0.25 0.16 0.15 0.16 0.10 0.03 0.01 0.00 0.00 0.00 0.00 0.00 0.01 0.02 0.01 0.00 0.01 0.05 0.02
0.00 0.01 0.01 0.02 0.02 0.01 0.02 0.09 0.21 0.34 0.48 0.61 0.70 0.71 0.69 0.66 0.65 0.62 0.61 0.53 0.41 0.36 0.31 0.26 0.23 0.19 0.15 0.12 0.07 0.03 0.00 0.01 0.00 0.00 0.01 0.00 0.01 0.01 0.00 0.00 0.01 0.01 0.00
0.00 0.00 0.01 0.02 0.05 0.07 0.07 0.11 0.16 0.28 0.48 0.65 0.60 0.55 0.50 0.48 0.48 0.44 0.42 0.39 0.32 0.27 0.26 0.22 0.17 0.13 0.11 0.09 0.04 0.01 0.00 0.01 0.00 0.00 0.00 0.00 0.00 0.00 0.00 0.00 0.01 0.00 0.00
0.00 0.00 0.00 0.01 0.01 0.03 0.06 0.15 0.26 0.40 0.57 0.66 0.65 0.57 0.52 0.46 0.38 0.35 0.27 0.22 0.21 0.19 0.16 0.12 0.09 0.06 0.05 0.04 0.02 0.00 0.00 0.00 0.00 0.00 0.00 0.00 0.00 0.00 0.00 0.00 0.00 0.00 0.00
0.00 0.00 0.00 0.01 0.02 0.05 0.08 0.13 0.25 0.31 0.33 0.30 0.35 0.33 0.36 0.25 0.19 0.16 0.13 0.11 0.10 0.05 0.04 0.03 0.02 0.02 0.02 0.01 0.00 0.01 0.02 0.01 0.00 0.00 0.00 0.00 0.00 0.00 0.00 0.00 0.00 0.00 0.00
0.00 0.00 0.00 0.00 0.01 0.04 0.06 0.10 0.11 0.07 0.06 0.12 0.12 0.11 0.13 0.13 0.07 0.07 0.12 0.11 0.06 0.05 0.02 0.01 0.01 0.01 0.00 0.00 0.01 0.01 0.02 0.00 0.00 0.00 0.00 0.00 0.01 0.01 0.01 0.01 0.00 0.00 0.00

GFSMW_prec_precacc24_204.txt.gz
Total_Precipitation_Accumulation
0.00 0.00 0.00 0.00 0.00 0.00 0.00 0.00 0.00 0.01 0.01 0.05 0.05 0.05 0.05 0.01 0.00 0.03 0.04 0.00 0.00 0.00 0.00 0.00 0.00 0.00 0.00 0.00 0.00 0.00 0.00 0.00 0.00 0.00 0.00 0.00 0.00 0.00 0.00 0.00 0.00 0.00 0.00
0.00 0.00 0.00 0.00 0.00 0.00 0.00 0.00 0.02 0.01 0.01 0.01 0.03 0.07 0.12 0.12 0.05 0.09 0.10 0.03 0.00 0.00 0.00 0.00 0.00 0.00 0.00 0.00 0.00 0.00 0.00 0.00 0.00 0.00 0.00 0.00 0.00 0.00 0.00 0.00 0.00 0.00 0.00
0.00 0.00 0.00 0.00 0.00 0.00 0.00 0.00 0.00 0.02 0.01 0.03 0.03 0.02 0.05 0.04 0.01 0.00 0.01 0.10 0.06 0.01 0.00 0.00 0.00 0.00 0.00 0.00 0.00 0.00 0.00 0.00 0.00 0.00 0.00 0.00 0.00 0.00 0.00 0.00 0.00 0.00 0.00
0.00 0.00 0.00 0.00 0.00 0.00 0.01 0.01 0.01 0.02 0.12 0.11 0.05 0.04 0.03 0.04 0.06 0.06 0.09 0.15 0.09 0.02 0.00 0.00 0.00 0.00 0.00 0.00 0.00 0.00 0.00 0.00 0.00 0.00 0.00 0.00 0.00 0.00 0.00 0.00 0.00 0.00 0.00
0.00 0.00 0.00 0.00 0.02 0.07 0.13 0.20 0.22 0.19 0.26 0.19 0.12 0.10 0.09 0.07 0.04 0.04 0.07 0.11 0.07 0.02 0.01 0.00 0.00 0.00 0.00 0.00 0.00 0.00 0.00 0.00 0.00 0.00 0.00 0.00 0.00 0.00 0.00 0.00 0.00 0.00 0.00
0.00 0.00 0.00 0.00 0.11 0.23 0.25 0.31 0.29 0.24 0.26 0.21 0.11 0.07 0.09 0.06 0.02 0.02 0.04 0.09 0.07 0.03 0.01 0.00 0.00 0.00 0.00 0.00 0.00 0.00 0.00 0.00 0.00 0.00 0.00 0.00 0.00 0.00 0.00 0.00 0.00 0.00 0.00
0.00 0.00 0.00 0.01 0.12 0.24 0.35 0.47 0.40 0.31 0.24 0.17 0.12 0.07 0.07 0.04 0.02 0.01 0.02 0.03 0.05 0.04 0.02 0.00 0.00 0.00 0.00 0.00 0.00 0.00 0.00 0.00 0.00 0.00 0.00 0.00 0.00 0.00 0.00 0.00 0.00 0.00 0.00
0.01 0.00 0.00 0.01 0.01 0.05 0.23 0.49 0.68 0.69 0.40 0.31 0.31 0.28 0.27 0.13 0.03 0.01 0.00 0.00 0.01 0.02 0.01 0.01 0.00 0.00 0.00 0.00 0.00 0.00 0.00 0.00 0.00 0.00 0.00 0.00 0.00 0.00 0.00 0.01 0.02 0.00 0.00
0.02 0.03 0.03 0.04 0.06 0.07 0.07 0.19 0.47 0.68 0.83 0.57 0.34 0.23 0.16 0.08 0.01 0.01 0.00 0.00 0.00 0.00 0.01 0.01 0.01 0.01 0.01 0.01 0.01 0.01 0.00 0.00 0.00 0.00 0.00 0.00 0.00 0.00 0.00 0.01 0.01 0.01 0.01
0.00 0.01 0.01 0.02 0.01 0.01 0.03 0.05 0.13 0.42 0.86 1.07 0.56 0.30 0.11 0.04 0.02 0.01 0.00 0.00 0.00 0.01 0.02 0.04 0.06 0.07 0.07 0.07 0.08 0.10 0.10 0.08 0.05 0.02 0.01 0.01 0.01 0.00 0.00 0.01 0.00 0.00 0.01
0.00 0.01 0.02 0.07 0.10 0.08 0.08 0.07 0.07 0.06 0.05 0.16 0.22 0.47 0.40 0.09 0.02 0.01 0.01 0.00 0.00 0.00 0.01 0.05 0.10 0.12 0.18 0.23 0.22 0.18 0.15 0.11 0.07 0.03 0.01 0.00 0.00 0.00 0.00 0.00 0.00 0.00 0.02
0.00 0.00 0.00 0.00 0.02 0.04 0.07 0.09 0.11 0.14 0.10 0.06 0.05 0.04 0.04 0.05 0.03 0.02 0.03 0.03 0.01 0.00 0.01 0.03 0.04 0.05 0.06 0.08 0.09 0.10 0.11 0.12 0.10 0.05 0.02 0.01 0.01 0.01 0.01 0.01 0.01 0.03 0.02
0.00 0.00 0.00 0.00 0.00 0.00 0.00 0.01 0.01 0.01 0.01 0.02 0.03 0.03 0.03 0.02 0.02 0.02 0.03 0.03 0.03 0.02 0.03 0.05 0.04 0.03 0.02 0.01 0.01 0.02 0.03 0.05 0.06 0.05 0.03 0.03 0.03 0.03 0.02 0.02 0.04 0.04 0.02
0.00 0.00 0.00 0.00 0.00 0.00 0.00 0.00 0.00 0.00 0.00 0.00 0.00 0.00 0.00 0.02 0.03 0.03 0.04 0.05 0.04 0.04 0.03 0.02 0.03 0.02 0.01 0.01 0.01 0.01 0.02 0.02 0.03 0.02 0.02 0.02 0.04 0.03 0.01 0.01 0.02 0.01 0.01
0.00 0.00 0.00 0.00 0.00 0.00 0.00 0.00 0.00 0.00 0.00 0.00 0.00 0.00 0.00 0.01 0.01 0.03 0.06 0.07 0.06 0.06 0.06 0.06 0.05 0.04 0.02 0.01 0.01 0.01 0.01 0.02 0.03 0.03 0.03 0.02 0.02 0.01 0.00 0.01 0.00 0.01 0.02
0.00 0.00 0.00 0.00 0.00 0.00 0.00 0.00 0.00 0.00 0.00 0.00 0.00 0.00 0.01 0.01 0.02 0.02 0.04 0.05 0.05 0.03 0.03 0.03 0.02 0.02 0.01 0.02 0.02 0.02 0.01 0.02 0.03 0.03 0.02 0.01 0.01 0.01 0.01 0.01 0.01 0.02 0.01
0.00 0.00 0.00 0.00 0.00 0.00 0.00 0.00 0.00 0.00 0.00 0.00 0.01 0.02 0.02 0.03 0.04 0.06 0.09 0.10 0.10 0.10 0.08 0.07 0.05 0.05 0.04 0.06 0.10 0.08 0.06 0.05 0.06 0.05 0.03 0.03 0.05 0.05 0.02 0.02 0.02 0.00 0.00
0.00 0.00 0.00 0.00 0.00 0.00 0.00 0.00 0.00 0.00 0.01 0.02 0.03 0.04 0.08 0.12 0.17 0.22 0.25 0.25 0.25 0.23 0.21 0.23 0.26 0.31 0.25 0.27 0.25 0.17 0.12 0.11 0.10 0.06 0.04 0.03 0.03 0.03 0.02 0.03 0.00 0.00 0.00
0.00 0.00 0.00 0.00 0.00 0.00 0.01 0.00 0.01 0.01 0.05 0.10 0.15 0.21 0.26 0.32 0.37 0.39 0.41 0.42 0.41 0.43 0.46 0.45 0.47 0.37 0.36 0.37 0.27 0.15 0.11 0.10 0.09 0.06 0.04 0.02 0.02 0.07 0.05 0.01 0.00 0.00 0.00
0.00 0.00 0.01 0.01 0.00 0.00 0.01 0.03 0.06 0.13 0.25 0.32 0.39 0.44 0.48 0.51 0.53 0.52 0.50 0.49 0.47 0.52 0.52 0.52 0.42 0.30 0.36 0.35 0.20 0.12 0.09 0.09 0.08 0.05 0.04 0.02 0.04 0.06 0.01 0.00 0.00 0.00 0.02
0.00 0.00 0.01 0.02 0.01 0.00 0.00 0.03 0.11 0.22 0.33 0.49 0.67 0.75 0.76 0.75 0.70 0.68 0.63 0.60 0.62 0.58 0.52 0.45 0.37 0.31 0.32 0.31 0.20 0.11 0.08 0.05 0.04 0.04 0.05 0.03 0.03 0.02 0.00 0.00 0.00 0.01 0.00
0.00 0.01 0.01 0.02 0.02 0.02 0.02 0.07 0.21 0.33 0.48 0.62 0.70 0.71 0.69 0.66 0.66 0.62 0.63 0.57 0.47 0.47 0.47 0.38 0.40 0.41 0.37 0.27 0.17 0.10 0.05 0.02 0.02 0.03 0.03 0.02 0.01 0.00 0.00 0.00 0.00 0.00 0.00
0.00 0.00 0.01 0.03 0.06 0.09 0.08 0.11 0.15 0.28 0.48 0.65 0.60 0.55 0.52 0.53 0.56 0.54 0.55 0.53 0.48 0.43 0.44 0.39 0.35 0.31 0.27 0.23 0.12 0.08 0.03 0.02 0.01 0.01 0.02 0.01 0.00 0.00 0.00 0.00 0.00 0.00 0.00
0.00 0.01 0.01 0.01 0.01 0.03 0.06 0.15 0.27 0.41 0.57 0.66 0.65 0.60 0.58 0.58 0.56 0.57 0.50 0.44 0.41 0.40 0.36 0.34 0.25 0.18 0.17 0.15 0.12 0.07 0.04 0.02 0.01 0.01 0.01 0.00 0.00 0.00 0.00 0.00 0.00 0.00 0.00
0.04 0.03 0.03 0.03 0.03 0.06 0.11 0.15 0.25 0.31 0.33 0.31 0.37 0.40 0.47 0.42 0.41 0.41 0.34 0.28 0.28 0.18 0.16 0.12 0.08 0.08 0.09 0.06 0.03 0.03 0.03 0.01 0.00 0.00 0.00 0.00 0.00 0.00 0.00 0.00 0.00 0.00 0.00
0.12 0.06 0.03 0.05 0.06 0.09 0.08 0.11 0.11 0.07 0.06 0.15 0.22 0.17 0.21 0.31 0.24 0.25 0.32 0.29 0.18 0.14 0.09 0.05 0.05 0.06 0.04 0.04 0.03 0.02 0.02 0.00 0.00 0.00 0.00 0.00 0.01 0.01 0.00 0.00 0.00 0.00 0.00

GFSMW_prec_precacc24_210.txt.gz
Total_Precipitation_Accumulation
0.00 0.00 0.00 0.00 0.00 0.00 0.00 0.01 0.01 0.03 0.05 0.08 0.09 0.07 0.07 0.04 0.03 0.07 0.15 0.09 0.05 0.03 0.02 0.02 0.01 0.00 0.00 0.00 0.00 0.00 0.00 0.00 0.00 0.00 0.00 0.00 0.00 0.00 0.00 0.00 0.00 0.00 0.00
0.00 0.00 0.00 0.00 0.00 0.00 0.00 0.01 0.04 0.06 0.03 0.03 0.07 0.12 0.22 0.20 0.12 0.16 0.23 0.18 0.07 0.02 0.01 0.01 0.01 0.00 0.00 0.00 0.00 0.00 0.00 0.00 0.00 0.00 0.00 0.00 0.00 0.00 0.00 0.00 0.00 0.00 0.00
0.00 0.00 0.00 0.00 0.00 0.00 0.00 0.01 0.02 0.08 0.10 0.16 0.17 0.17 0.25 0.12 0.05 0.01 0.04 0.19 0.23 0.13 0.04 0.02 0.00 0.00 0.00 0.00 0.00 0.00 0.00 0.00 0.00 0.00 0.00 0.00 0.00 0.00 0.00 0.00 0.00 0.00 0.00
0.00 0.00 0.00 0.00 0.00 0.00 0.01 0.03 0.05 0.14 0.37 0.39 0.28 0.18 0.17 0.10 0.10 0.11 0.13 0.24 0.30 0.24 0.13 0.05 0.03 0.01 0.00 0.00 0.00 0.00 0.00 0.00 0.00 0.00 0.00 0.00 0.00 0.00 0.00 0.00 0.00 0.00 0.00
0.00 0.00 0.00 0.00 0.02 0.07 0.13 0.21 0.29 0.32 0.44 0.48 0.40 0.41 0.32 0.22 0.17 0.14 0.14 0.17 0.13 0.11 0.09 0.05 0.04 0.03 0.02 0.01 0.00 0.00 0.00 0.00 0.00 0.00 0.00 0.00 0.00 0.00 0.00 0.00 0.00 0.00 0.00
0.00 0.00 0.00 0.00 0.11 0.23 0.27 0.37 0.38 0.37 0.44 0.44 0.44 0.47 0.49 0.49 0.31 0.19 0.17 0.18 0.15 0.11 0.09 0.08 0.08 0.06 0.03 0.01 0.00 0.00 0.00 0.00 0.00 0.00 0.00 0.00 0.00 0.00 0.00 0.00 0.00 0.00 0.00
0.00 0.00 0.00 0.01 0.12 0.24 0.35 0.50 0.53 0.44 0.43 0.47 0.51 0.53 0.55 0.57 0.56 0.47 0.34 0.26 0.22 0.20 0.19 0.22 0.20 0.16 0.06 0.02 0.00 0.00 0.00 0.00 0.00 0.00 0.00 0.00 0.00 0.00 0.00 0.00 0.00 0.00 0.00
0.01 0.00 0.00 0.01 0.01 0.05 0.24 0.50 0.71 0.76 0.57 0.56 0.68 0.77 0.87 1.09 1.10 1.00 0.97 0.90 0.83 0.80 0.73 0.69 0.54 0.40 0.33 0.20 0.10 0.03 0.01 0.00 0.00 0.00 0.00 0.00 0.00 0.00 0.00 0.00 0.00 0.00 0.00
0.02 0.03 0.03 0.04 0.07 0.09 0.11 0.26 0.56 0.77 1.01 0.99 0.96 0.96 0.94 0.99 1.01 1.06 1.31 1.51 1.58 1.42 1.25 1.19 1.08 0.96 0.73 0.59 0.47 0.28 0.16 0.05 0.02 0.01 0.00 0.00 0.00 0.00 0.00 0.00 0.00 0.00 0.02
0.00 0.01 0.01 0.02 0.01 0.01 0.03 0.07 0.20 0.55 1.03 1.35 1.23 1.05 1.09 1.16 0.98 0.94 0.95 0.88 0.96 1.12 1.08 1.01 1.05 1.04 0.94 0.73 0.54 0.34 0.23 0.17 0.15 0.09 0.06 0.05 0.04 0.02 0.01 0.01 0.01 0.00 0.01
0.00 0.01 0.02 0.07 0.10 0.08 0.08 0.07 0.07 0.07 0.11 0.24 0.43 0.78 0.89 0.76 0.66 0.52 0.62 0.76 0.68 0.58 0.62 0.62 0.58 0.61 0.63 0.58 0.51 0.40 0.32 0.24 0.20 0.17 0.14 0.13 0.11 0.07 0.04 0.02 0.01 0.01 0.00
0.00 0.00 0.00 0.00 0.02 0.04 0.07 0.09 0.11 0.14 0.13 0.11 0.15 0.17 0.19 0.28 0.35 0.33 0.33 0.46 0.59 0.61 0.64 0.57 0.47 0.43 0.48 0.48 0.47 0.43 0.34 0.30 0.27 0.23 0.16 0.13 0.10 0.08 0.05 0.03 0.02 0.02 0.01
0.00 0.00 0.00 0.00 0.00 0.00 0.00 0.01 0.01 0.01 0.01 0.02 0.03 0.06 0.07 0.08 0.10 0.13 0.15 0.18 0.29 0.43 0.57 0.62 0.55 0.47 0.45 0.45 0.48 0.49 0.43 0.35 0.31 0.27 0.23 0.20 0.17 0.14 0.10 0.08 0.07 0.06 0.04
0.00 0.00 0.00 0.00 0.00 0.00 0.00 0.00 0.00 0.00 0.00 0.00 0.00 0.00 0.01 0.02 0.03 0.04 0.06 0.10 0.15 0.21 0.33 0.46 0.52 0.41 0.37 0.35 0.37 0.37 0.33 0.27 0.25 0.24 0.21 0.18 0.16 0.13 0.09 0.06 0.05 0.05 0.04
0.00 0.00 0.00 0.00 0.00 0.00 0.00 0.00 0.00 0.00 0.00 0.00 0.00 0.01 0.01 0.01 0.03 0.05 0.07 0.08 0.08 0.11 0.15 0.22 0.31 0.34 0.28 0.27 0.28 0.25 0.24 0.21 0.21 0.22 0.17 0.14 0.14 0.11 0.09 0.05 0.04 0.03 0.01
0.00 0.00 0.00 0.00 0.00 0.00 0.00 0.00 0.00 0.00 0.00 0.00 0.00 0.02 0.03 0.03 0.02 0.02 0.04 0.06 0.05 0.04 0.04 0.05 0.07 0.12 0.15 0.20 0.17 0.14 0.12 0.11 0.13 0.13 0.09 0.07 0.07 0.05 0.05 0.04 0.02 0.00 0.00
0.00 0.00 0.00 0.00 0.00 0.00 0.00 0.00 0.00 0.00 0.00 0.00 0.00 0.01 0.02 0.03 0.04 0.05 0.07 0.10 0.11 0.10 0.08 0.08 0.06 0.06 0.05 0.11 0.16 0.17 0.14 0.15 0.15 0.13 0.11 0.07 0.08 0.07 0.04 0.02 0.00 0.00 0.00
0.00 0.00 0.00 0.00 0.00 0.00 0.00 0.00 0.00 0.00 0.00 0.01 0.01 0.02 0.04 0.06 0.10 0.14 0.22 0.25 0.25 0.23 0.22 0.26 0.28 0.31 0.26 0.29 0.27 0.22 0.17 0.16 0.13 0.08 0.05 0.04 0.05 0.04 0.03 0.02 0.01 0.00 0.00
0.00 0.00 0.00 0.00 0.00 0.00 0.01 0.00 0.00 0.00 0.01 0.01 0.02 0.04 0.07 0.10 0.19 0.32 0.41 0.42 0.42 0.44 0.47 0.46 0.48 0.38 0.37 0.39 0.31 0.20 0.16 0.14 0.14 0.09 0.06 0.02 0.04 0.09 0.05 0.02 0.01 0.01 0.00
0.00 0.00 0.00 0.01 0.00 0.00 0.00 0.00 0.01 0.02 0.03 0.05 0.07 0.09 0.13 0.25 0.41 0.49 0.49 0.50 0.49 0.53 0.53 0.53 0.43 0.31 0.37 0.37 0.25 0.17 0.13 0.13 0.10 0.07 0.05 0.03 0.05 0.08 0.02 0.01 0.01 0.00 0.01
0.00 0.00 0.00 0.00 0.00 0.00 0.00 0.00 0.01 0.02 0.08 0.18 0.32 0.44 0.54 0.64 0.67 0.68 0.63 0.61 0.63 0.60 0.53 0.46 0.38 0.32 0.34 0.36 0.26 0.16 0.12 0.07 0.06 0.05 0.07 0.06 0.07 0.04 0.01 0.00 0.00 0.00 0.00
0.00 0.01 0.01 0.01 0.01 0.02 0.01 0.01 0.04 0.12 0.20 0.30 0.42 0.52 0.61 0.65 0.66 0.62 0.63 0.57 0.47 0.49 0.48 0.40 0.43 0.44 0.42 0.34 0.24 0.16 0.12 0.06 0.04 0.04 0.04 0.06 0.05 0.02 0.00 0.00 0.00 0.00 0.00
0.00 0.00 0.00 0.02 0.05 0.09 0.08 0.10 0.13 0.20 0.34 0.50 0.49 0.49 0.50 0.52 0.56 0.55 0.55 0.53 0.48 0.44 0.47 0.43 0.42 0.45 0.44 0.39 0.23 0.16 0.10 0.05 0.03 0.03 0.05 0.04 0.03 0.01 0.00 0.00 0.00 0.00 0.00
0.00 0.01 0.01 0.01 0.01 0.02 0.02 0.09 0.14 0.22 0.42 0.56 0.60 0.59 0.58 0.59 0.56 0.57 0.50 0.44 0.43 0.42 0.41 0.42 0.44 0.42 0.41 0.37 0.31 0.21 0.12 0.08 0.06 0.07 0.06 0.03 0.02 0.00 0.00 0.00 0.00 0.00 0.00
0.05 0.03 0.03 0.03 0.01 0.01 0.04 0.05 0.10 0.18 0.25 0.26 0.36 0.40 0.47 0.43 0.41 0.41 0.36 0.29 0.31 0.25 0.29 0.30 0.28 0.28 0.30 0.22 0.15 0.12 0.08 0.06 0.04 0.04 0.04 0.03 0.01 0.00 0.00 0.00 0.00 0.00 0.00
0.12 0.06 0.03 0.05 0.05 0.07 0.05 0.04 0.06 0.06 0.06 0.15 0.22 0.18 0.21 0.31 0.24 0.26 0.37 0.36 0.27 0.25 0.20 0.19 0.15 0.17 0.13 0.13 0.12 0.10 0.06 0.03 0.01 0.01 0.01 0.01 0.01 0.01 0.00 0.00 0.00 0.00 0.00

GFSMW_prec_precacc24_216.txt.gz
Total_Precipitation_Accumulation
0.00 0.00 0.00 0.00 0.00 0.00 0.00 0.02 0.03 0.05 0.08 0.10 0.13 0.12 0.14 0.13 0.08 0.13 0.21 0.15 0.15 0.09 0.06 0.04 0.02 0.01 0.01 0.00 0.00 0.00 0.00 0.00 0.00 0.00 0.00 0.00 0.00 0.00 0.00 0.00 0.00 0.00 0.00
0.00 0.00 0.00 0.00 0.00 0.00 0.00 0.01 0.05 0.09 0.08 0.09 0.11 0.17 0.30 0.26 0.17 0.19 0.25 0.25 0.18 0.19 0.13 0.09 0.06 0.03 0.03 0.02 0.02 0.01 0.00 0.00 0.00 0.00 0.00 0.00 0.00 0.00 0.00 0.00 0.00 0.00 0.00
0.00 0.00 0.00 0.00 0.00 0.00 0.00 0.01 0.02 0.09 0.13 0.23 0.27 0.29 0.39 0.23 0.12 0.10 0.12 0.27 0.37 0.31 0.20 0.13 0.08 0.04 0.04 0.02 0.01 0.01 0.00 0.00 0.00 0.00 0.00 0.00 0.00 0.00 0.00 0.00 0.00 0.00 0.00
0.00 0.00 0.00 0.00 0.00 0.00 0.01 0.03 0.05 0.13 0.36 0.40 0.32 0.27 0.27 0.19 0.19 0.24 0.25 0.31 0.35 0.33 0.29 0.21 0.19 0.12 0.07 0.05 0.03 0.02 0.01 0.01 0.00 0.00 0.00 0.00 0.00 0.00 0.00 0.00 0.00 0.00 0.00
0.00 0.00 0.00 0.00 0.02 0.07 0.13 0.21 0.29 0.31 0.43 0.48 0.40 0.44 0.41 0.32 0.28 0.28 0.33 0.35 0.29 0.29 0.28 0.22 0.18 0.16 0.16 0.13 0.11 0.10 0.07 0.03 0.01 0.00 0.00 0.00 0.00 0.00 0.00 0.00 0.00 0.00 0.00
0.00 0.00 0.00 0.00 0.11 0.23 0.27 0.37 0.38 0.36 0.44 0.44 0.44 0.47 0.51 0.60 0.52 0.46 0.48 0.54 0.54 0.58 0.55 0.47 0.41 0.37 0.35 0.31 0.30 0.30 0.28 0.26 0.21 0.12 0.03 0.00 0.00 0.00 0.00 0.00 0.00 0.00 0.00
0.00 0.00 0.00 0.01 0.12 0.24 0.35 0.50 0.53 0.44 0.43 0.47 0.51 0.53 0.55 0.57 0.61 0.65 0.63 0.66 0.67 0.66 0.65 0.79 0.89 0.91 0.93 0.90 0.99 1.06 0.94 0.91 0.84 0.60 0.31 0.16 0.05 0.02 0.01 0.00 0.00 0.00 0.00
0.01 0.00 0.00 0.01 0.01 0.05 0.24 0.50 0.71 0.76 0.57 0.56 0.68 0.77 0.87 1.09 1.13 1.11 1.08 1.03 1.02 1.04 1.02 1.10 1.20 1.24 1.35 1.45 1.52 1.53 1.43 1.38 1.33 1.20 0.94 0.71 0.44 0.20 0.10 0.04 0.01 0.00 0.01
0.02 0.03 0.03 0.04 0.07 0.09 0.11 0.26 0.56 0.77 1.01 0.99 0.96 0.96 0.94 0.99 1.01 1.07 1.33 1.56 1.64 1.53 1.42 1.38 1.26 1.16 1.07 1.10 1.29 1.36 1.25 1.16 1.04 0.81 0.65 0.53 0.39 0.24 0.12 0.05 0.02 0.01 0.03
0.00 0.01 0.01 0.02 0.01 0.01 0.03 0.07 0.20 0.55 1.03 1.35 1.23 1.05 1.09 1.16 0.98 0.94 0.95 0.90 1.00 1.20 1.16 1.09 1.13 1.12 1.10 1.07 1.04 1.05 1.04 1.04 0.97 0.82 0.68 0.51 0.32 0.22 0.12 0.04 0.01 0.00 0.01
0.00 0.01 0.02 0.07 0.10 0.08 0.08 0.07 0.07 0.07 0.11 0.24 0.43 0.78 0.89 0.76 0.66 0.52 0.62 0.76 0.70 0.64 0.69 0.68 0.67 0.72 0.77 0.80 0.82 0.80 0.80 0.75 0.71 0.69 0.64 0.61 0.49 0.37 0.25 0.12 0.05 0.02 0.01
0.00 0.00 0.00 0.00 0.02 0.04 0.07 0.09 0.11 0.14 0.13 0.11 0.15 0.17 0.19 0.28 0.35 0.33 0.33 0.46 0.59 0.62 0.66 0.62 0.56 0.54 0.62 0.71 0.73 0.72 0.67 0.65 0.66 0.62 0.62 0.62 0.59 0.51 0.41 0.30 0.18 0.11 0.08
0.00 0.00 0.00 0.00 0.00 0.00 0.00 0.01 0.01 0.01 0.01 0.02 0.03 0.06 0.07 0.08 0.10 0.13 0.14 0.17 0.27 0.43 0.58 0.65 0.65 0.65 0.67 0.69 0.72 0.75 0.70 0.63 0.59 0.56 0.56 0.60 0.59 0.58 0.53 0.45 0.37 0.32 0.27
0.00 0.00 0.00 0.00 0.00 0.00 0.00 0.00 0.00 0.00 0.00 0.00 0.00 0.00 0.00 0.01 0.01 0.01 0.03 0.06 0.13 0.22 0.34 0.50 0.63 0.58 0.57 0.64 0.68 0.68 0.67 0.62 0.61 0.57 0.53 0.51 0.50 0.46 0.42 0.38 0.34 0.32 0.31
0.00 0.00 0.00 0.00 0.00 0.00 0.00 0.00 0.00 0.00 0.00 0.00 0.00 0.01 0.01 0.01 0.01 0.02 0.01 0.01 0.03 0.09 0.16 0.24 0.35 0.45 0.46 0.54 0.60 0.59 0.59 0.57 0.60 0.63 0.57 0.51 0.50 0.48 0.44 0.38 0.32 0.28 0.28
0.00 0.00 0.00 0.00 0.00 0.00 0.00 0.00 0.00 0.00 0.00 0.00 0.00 0.02 0.02 0.01 0.01 0.00 0.00 0.01 0.02 0.03 0.03 0.05 0.09 0.18 0.28 0.48 0.55 0.50 0.43 0.42 0.44 0.44 0.43 0.42 0.40 0.37 0.38 0.36 0.36 0.33 0.28
0.00 0.00 0.00 0.00 0.00 0.00 0.00 0.00 0.00 0.00 0.00 0.00 0.00 0.00 0.00 0.00 0.00 0.00 0.00 0.01 0.02 0.02 0.03 0.06 0.07 0.09 0.12 0.31 0.47 0.49 0.42 0.45 0.42 0.38 0.37 0.37 0.38 0.36 0.30 0.29 0.27 0.25 0.22
0.00 0.00 0.00 0.00 0.00 0.00 0.00 0.00 0.00 0.00 0.00 0.00 0.00 0.00 0.00 0.00 0.00 0.00 0.00 0.01 0.05 0.09 0.13 0.19 0.23 0.31 0.32 0.48 0.54 0.51 0.44 0.39 0.33 0.25 0.23 0.23 0.24 0.22 0.20 0.17 0.16 0.16 0.14
0.00 0.00 0.00 0.00 0.00 0.00 0.01 0.00 0.00 0.00 0.00 0.00 0.00 0.00 0.00 0.00 0.00 0.00 0.02 0.06 0.13 0.22 0.31 0.35 0.43 0.38 0.40 0.51 0.49 0.45 0.38 0.38 0.35 0.23 0.15 0.12 0.14 0.17 0.12 0.09 0.08 0.07 0.06
0.00 0.00 0.00 0.01 0.00 0.00 0.00 0.00 0.00 0.00 0.00 0.00 0.02 0.02 0.01 0.00 0.01 0.03 0.06 0.15 0.23 0.35 0.42 0.45 0.39 0.32 0.40 0.45 0.35 0.37 0.31 0.28 0.25 0.18 0.14 0.11 0.11 0.12 0.05 0.03 0.02 0.02 0.02
0.00 0.00 0.00 0.00 0.00 0.00 0.00 0.00 0.00 0.00 0.00 0.00 0.00 0.01 0.02 0.04 0.09 0.18 0.26 0.35 0.46 0.49 0.47 0.42 0.36 0.33 0.36 0.40 0.29 0.22 0.21 0.25 0.31 0.21 0.15 0.12 0.11 0.05 0.01 0.00 0.00 0.00 0.00
0.00 0.00 0.00 0.00 0.00 0.02 0.01 0.00 0.00 0.00 0.01 0.03 0.07 0.12 0.17 0.22 0.29 0.33 0.39 0.40 0.38 0.43 0.44 0.38 0.42 0.45 0.45 0.43 0.32 0.22 0.17 0.16 0.21 0.21 0.13 0.14 0.10 0.03 0.00 0.00 0.00 0.00 0.00
0.00 0.00 0.00 0.00 0.01 0.03 0.03 0.05 0.06 0.09 0.14 0.21 0.29 0.28 0.27 0.31 0.37 0.40 0.43 0.44 0.42 0.41 0.45 0.43 0.42 0.45 0.45 0.44 0.37 0.39 0.24 0.17 0.13 0.15 0.13 0.08 0.06 0.02 0.00 0.00 0.00 0.00 0.00
0.00 0.01 0.01 0.01 0.01 0.01 0.01 0.05 0.12 0.15 0.25 0.33 0.42 0.44 0.46 0.47 0.46 0.49 0.45 0.41 0.41 0.42 0.41 0.43 0.45 0.43 0.44 0.42 0.40 0.38 0.39 0.25 0.21 0.25 0.20 0.09 0.03 0.00 0.00 0.01 0.00 0.00 0.00
0.05 0.03 0.03 0.04 0.02 0.02 0.04 0.05 0.10 0.17 0.20 0.18 0.26 0.29 0.38 0.39 0.39 0.41 0.35 0.29 0.32 0.26 0.30 0.31 0.29 0.30 0.33 0.27 0.22 0.23 0.19 0.15 0.13 0.15 0.14 0.11 0.05 0.02 0.01 0.01 0.00 0.00 0.00
0.12 0.07 0.04 0.06 0.06 0.07 0.05 0.04 0.04 0.03 0.04 0.10 0.15 0.13 0.17 0.28 0.22 0.25 0.36 0.37 0.29 0.28 0.23 0.22 0.19 0.23 0.21 0.26 0.31 0.29 0.24 0.18 0.10 0.05 0.05 0.07 0.05 0.03 0.01 0.00 0.00 0.00 0.00